User: anonymous   Login
Location: ??????
(55.8274°N, 37.9338°E)
Time: 22:43:17
(UTC+00:00)
Language:

Cosmos 1666 Rocket - Orbit

View from above orbital plane
View from above orbital plane
View from above satellite
View from above satellite

Ground track
Ground track

The orbit data is extracted from the following two-line orbital elements,

1 15890U 85058B   24170.62536822  .00000615  00000-0  69629-4 0  9995
2 15890  82.5261  25.5027 0021925  64.2372 296.1103 14.84599642 83086
Epoch (UTC): 18 June 2024 15:00:31
Eccentricity: 0.0021925
inclination: 82.5261°
perigee height: 599 km
apogee height: 630 km
right ascension of ascending node: 25.5027°
argument of perigee: 64.2372°
revolutions per day: 14.84599642
mean anomaly at epoch: 296.1103°
orbit number at epoch: 8308

The dashed part of the orbit path shows where the satellite is in the earth's shadow,  

DLR